TimeCST,TemperatureF,Dew PointF,Humidity,Sea Level PressureIn,VisibilityMPH,Wind Direction,Wind SpeedMPH,Gust SpeedMPH,PrecipitationIn,Events,Conditions,WindDirDegrees,DateUTC
12:13 AM,-5.8,-11.2,77,30.24,10.0,NW,5.8,-,N/A,,Clear,310,2014-01-08 06:13:00
12:32 AM,-5.8,-11.2,77,30.25,10.0,WNW,4.6,-,N/A,,Clear,300,2014-01-08 06:32:00
12:53 AM,-7.6,-11.2,84,30.26,10.0,WNW,4.6,-,N/A,,Clear,290,2014-01-08 06:53:00
1:13 AM,-7.6,-11.2,84,30.26,10.0,WNW,4.6,-,N/A,,Clear,290,2014-01-08 07:13:00
1:32 AM,-7.6,-11.2,84,30.27,10.0,WNW,5.8,-,N/A,,Clear,290,2014-01-08 07:32:00
1:53 AM,-7.6,-13.0,77,30.28,10.0,WNW,5.8,-,N/A,,Clear,290,2014-01-08 07:53:00
2:13 AM,-7.6,-13.0,77,30.28,10.0,WNW,8.1,-,N/A,,Clear,300,2014-01-08 08:13:00
2:33 AM,-7.6,-13.0,77,30.29,10.0,WNW,3.5,-,N/A,,Clear,300,2014-01-08 08:33:00
2:52 AM,-7.6,-14.8,71,30.29,10.0,NW,3.5,-,N/A,,Clear,320,2014-01-08 08:52:00
3:13 AM,-9.4,-14.8,77,30.30,10.0,NW,3.5,-,N/A,,Clear,320,2014-01-08 09:13:00
3:32 AM,-7.6,-14.8,71,30.30,10.0,NW,3.5,-,N/A,,Clear,310,2014-01-08 09:32:00
3:53 AM,-9.4,-14.8,77,30.31,10.0,WNW,4.6,-,N/A,,Clear,300,2014-01-08 09:53:00
4:13 AM,-9.4,-14.8,77,30.31,10.0,WNW,3.5,-,N/A,,Clear,300,2014-01-08 10:13:00
4:33 AM,-9.4,-14.8,77,30.31,10.0,WNW,3.5,-,N/A,,Clear,290,2014-01-08 10:33:00
4:52 AM,-9.4,-14.8,77,30.31,10.0,WNW,4.6,-,N/A,,Clear,290,2014-01-08 10:52:00
5:13 AM,-9.4,-16.6,71,30.31,10.0,WNW,4.6,-,N/A,,Clear,290,2014-01-08 11:13:00
5:33 AM,-9.4,-16.6,71,30.32,10.0,WNW,3.5,-,N/A,,Clear,290,2014-01-08 11:33:00
5:52 AM,-11.2,-16.6,77,30.32,10.0,WNW,3.5,-,N/A,,Clear,290,2014-01-08 11:52:00
6:13 AM,-11.2,-16.6,77,30.32,10.0,WNW,4.6,-,N/A,,Clear,300,2014-01-08 12:13:00
6:33 AM,-11.2,-16.6,77,30.33,10.0,NW,5.8,-,N/A,,Clear,310,2014-01-08 12:33:00
6:52 AM,-11.2,-16.6,77,30.33,10.0,NW,4.6,-,N/A,,Clear,320,2014-01-08 12:52:00
7:13 AM,-11.2,-16.6,77,30.35,10.0,NW,4.6,-,N/A,,Clear,310,2014-01-08 13:13:00
7:33 AM,-11.2,-16.6,77,30.36,10.0,NW,4.6,-,N/A,,Clear,310,2014-01-08 13:33:00
7:52 AM,-11.2,-16.6,77,30.36,10.0,NW,3.5,-,N/A,,Clear,310,2014-01-08 13:52:00
8:13 AM,-11.2,-16.6,77,30.38,10.0,NW,3.5,-,N/A,,Clear,310,2014-01-08 14:13:00
8:33 AM,-11.2,-16.6,77,30.38,10.0,NW,3.5,-,N/A,,Clear,320,2014-01-08 14:33:00
8:52 AM,-11.2,-16.6,77,30.40,10.0,NW,3.5,-,N/A,,Clear,310,2014-01-08 14:52:00
9:13 AM,-9.4,-14.8,77,30.41,10.0,NW,3.5,-,N/A,,Clear,310,2014-01-08 15:13:00
9:33 AM,-9.4,-14.8,77,30.42,10.0,NW,4.6,-,N/A,,Clear,320,2014-01-08 15:33:00
9:52 AM,-7.6,-14.8,71,30.43,10.0,Calm,Calm,-,N/A,,Clear,0,2014-01-08 15:52:00
10:13 AM,-7.6,-14.8,71,30.43,10.0,NNW,3.5,-,N/A,,Clear,330,2014-01-08 16:13:00
10:33 AM,-7.6,-14.8,71,30.43,10.0,NNW,3.5,-,N/A,,Clear,330,2014-01-08 16:33:00
10:52 AM,-5.8,-13.0,71,30.43,10.0,North,3.5,-,N/A,,Clear,360,2014-01-08 16:52:00
11:13 AM,-5.8,-13.0,71,30.43,10.0,Calm,Calm,-,N/A,,Clear,0,2014-01-08 17:13:00
11:33 AM,-5.8,-11.2,77,30.43,10.0,West,3.5,-,N/A,,Clear,270,2014-01-08 17:33:00
11:53 AM,-4.0,-11.2,71,30.42,10.0,Calm,Calm,-,N/A,,Clear,0,2014-01-08 17:53:00
12:12 PM,-2.2,-11.2,66,30.42,10.0,Calm,Calm,-,N/A,,Clear,0,2014-01-08 18:12:00
12:33 PM,-2.2,-9.4,71,30.42,10.0,Calm,Calm,-,N/A,,Clear,0,2014-01-08 18:33:00
12:53 PM,-2.2,-9.4,71,30.41,10.0,Calm,Calm,-,N/A,,Clear,0,2014-01-08 18:53:00
1:13 PM,-2.2,-9.4,71,30.41,10.0,Calm,Calm,-,N/A,,Clear,0,2014-01-08 19:13:00
1:32 PM,-0.4,-9.4,66,30.41,10.0,WNW,3.5,-,N/A,,Clear,300,2014-01-08 19:32:00
1:53 PM,-0.4,-9.4,66,30.41,10.0,West,3.5,-,N/A,,Clear,280,2014-01-08 19:53:00
2:12 PM,-0.4,-9.4,66,30.41,10.0,Calm,Calm,-,N/A,,Clear,0,2014-01-08 20:12:00
2:33 PM,-0.4,-9.4,66,30.41,10.0,WNW,3.5,-,N/A,,Clear,300,2014-01-08 20:33:00
2:53 PM,-0.4,-9.4,66,30.41,10.0,West,3.5,-,N/A,,Clear,270,2014-01-08 20:53:00
3:12 PM,-0.4,-9.4,66,30.41,10.0,Calm,Calm,-,N/A,,Clear,0,2014-01-08 21:12:00
3:33 PM,-0.4,-9.4,66,30.42,10.0,Calm,Calm,-,N/A,,Clear,0,2014-01-08 21:33:00
3:53 PM,-0.4,-9.4,66,30.42,10.0,Calm,Calm,-,N/A,,Clear,0,2014-01-08 21:53:00
4:12 PM,-0.4,-9.4,66,30.42,10.0,Calm,Calm,-,N/A,,Clear,0,2014-01-08 22:12:00
4:33 PM,-0.4,-7.6,72,30.42,10.0,Calm,Calm,-,N/A,,Clear,0,2014-01-08 22:33:00
4:53 PM,-0.4,-7.6,72,30.42,10.0,Calm,Calm,-,N/A,,Clear,0,2014-01-08 22:53:00
5:12 PM,-2.2,-7.6,78,30.42,10.0,Calm,Calm,-,N/A,,Clear,0,2014-01-08 23:12:00
5:33 PM,-4.0,-9.4,78,30.42,10.0,Calm,Calm,-,N/A,,Clear,0,2014-01-08 23:33:00
5:53 PM,-5.8,-9.4,84,30.41,10.0,Calm,Calm,-,N/A,,Clear,0,2014-01-08 23:53:00
6:12 PM,-5.8,-9.4,84,30.41,10.0,Calm,Calm,-,N/A,,Clear,0,2014-01-09 00:12:00
6:33 PM,-5.8,-9.4,84,30.41,10.0,Calm,Calm,-,N/A,,Clear,0,2014-01-09 00:33:00
6:53 PM,-7.6,-9.4,92,30.41,10.0,Calm,Calm,-,N/A,,Clear,0,2014-01-09 00:53:00
7:12 PM,-7.6,-11.2,84,30.41,10.0,ESE,3.5,-,N/A,,Clear,120,2014-01-09 01:12:00
7:33 PM,-9.4,-11.2,92,30.40,10.0,East,4.6,-,N/A,,Clear,100,2014-01-09 01:33:00
7:53 PM,-9.4,-11.2,92,30.40,10.0,ESE,3.5,-,N/A,,Unknown,110,2014-01-09 01:53:00
8:12 PM,-9.4,-11.2,92,30.40,10.0,SE,3.5,-,N/A,,Clear,140,2014-01-09 02:12:00
8:33 PM,-9.4,-13.0,84,30.40,10.0,Calm,Calm,-,N/A,,Clear,0,2014-01-09 02:33:00
8:52 PM,-7.6,-11.2,84,30.40,10.0,Calm,Calm,-,N/A,,Clear,0,2014-01-09 02:52:00
9:13 PM,-7.6,-11.2,84,30.40,10.0,Calm,Calm,-,N/A,,Clear,0,2014-01-09 03:13:00
9:33 PM,-7.6,-9.4,92,30.39,10.0,SSE,3.5,-,N/A,,Clear,150,2014-01-09 03:33:00
9:53 PM,-7.6,-11.2,84,30.39,10.0,Calm,Calm,-,N/A,,Clear,0,2014-01-09 03:53:00
10:13 PM,-9.4,-11.2,92,30.39,10.0,Calm,Calm,-,N/A,,Clear,0,2014-01-09 04:13:00
10:33 PM,-7.6,-11.2,84,30.39,10.0,SSE,3.5,-,N/A,,Scattered Clouds,160,2014-01-09 04:33:00
10:53 PM,-5.8,-9.4,84,30.38,10.0,Calm,Calm,-,N/A,,Overcast,0,2014-01-09 04:53:00
11:13 PM,-5.8,-9.4,84,30.36,10.0,SE,8.1,-,N/A,,Overcast,140,2014-01-09 05:13:00
11:32 PM,-4.0,-7.6,85,30.36,10.0,SSE,3.5,-,N/A,,Overcast,160,2014-01-09 05:32:00
11:53 PM,-2.2,-5.8,85,30.35,10.0,SSE,4.6,-,N/A,,Overcast,160,2014-01-09 05:53:00